Time,TemperatureF,DewpointF,PressureIn,WindDirection,WindDirectionDegrees,WindSpeedMPH,WindSpeedGustMPH,Humidity,HourlyPrecipIn,Conditions,Clouds,dailyrainin,SolarRadiationWatts/m^2,SoftwareType,DateUTC
2013-09-19 00:01:00,64.0,61.0,-100.00,South,187,5.0,9.0,91,0.00,,,0.13,0.000000,,2013-09-19 04:01:00,
2013-09-19 00:03:00,64.0,62.0,-100.00,South,175,3.0,7.0,93,0.00,,,0.13,0.000000,,2013-09-19 04:03:00,
2013-09-19 00:25:00,64.0,62.0,-100.00,South,175,3.0,7.0,93,0.00,,,0.13,0.000000,,2013-09-19 04:25:00,
2013-09-19 00:34:00,64.0,62.0,-100.00,South,175,3.0,7.0,93,0.00,,,0.13,0.000000,,2013-09-19 04:34:00,
2013-09-19 00:44:00,64.0,62.0,-100.00,South,175,3.0,7.0,93,0.00,,,0.13,0.000000,,2013-09-19 04:44:00,
2013-09-19 00:54:00,64.0,62.0,-100.00,South,175,3.0,7.0,93,0.00,,,0.13,0.000000,,2013-09-19 04:54:00,
2013-09-19 01:23:00,65.0,63.0,-100.00,SW,234,3.0,10.0,92,0.00,,,0.13,0.000000,,2013-09-19 05:23:00,
2013-09-19 01:34:00,65.0,63.0,-100.00,SW,234,3.0,10.0,92,0.00,,,0.13,0.000000,,2013-09-19 05:34:00,
2013-09-19 01:43:00,65.0,63.0,-100.00,SW,234,3.0,10.0,92,0.00,,,0.13,0.000000,,2013-09-19 05:43:00,
2013-09-19 01:52:00,65.0,63.0,-100.00,SW,234,3.0,10.0,92,0.00,,,0.13,0.000000,,2013-09-19 05:52:00,
2013-09-19 02:02:00,65.0,63.0,-100.00,SW,234,3.0,10.0,92,0.00,,,0.13,0.000000,,2013-09-19 06:02:00,
2013-09-19 02:22:00,65.0,64.0,-100.00,South,180,4.0,10.0,95,0.00,,,0.13,0.000000,,2013-09-19 06:22:00,
2013-09-19 02:32:00,65.0,64.0,-100.00,South,180,4.0,10.0,95,0.00,,,0.13,0.000000,,2013-09-19 06:32:00,
2013-09-19 02:43:00,65.0,64.0,-100.00,South,180,4.0,10.0,95,0.00,,,0.13,0.000000,,2013-09-19 06:43:00,
2013-09-19 02:52:00,65.0,64.0,-100.00,South,180,4.0,10.0,95,0.00,,,0.13,0.000000,,2013-09-19 06:52:00,
2013-09-19 03:02:00,65.0,64.0,-100.00,South,180,4.0,10.0,95,0.00,,,0.13,0.000000,,2013-09-19 07:02:00,
2013-09-19 03:22:00,65.0,63.0,-100.00,South,176,6.0,9.0,94,0.04,,,0.17,0.000000,,2013-09-19 07:22:00,
2013-09-19 03:33:00,65.0,63.0,-100.00,South,176,6.0,9.0,94,0.04,,,0.17,0.000000,,2013-09-19 07:33:00,
2013-09-19 03:42:00,65.0,63.0,-100.00,South,176,6.0,9.0,94,0.04,,,0.17,0.000000,,2013-09-19 07:42:00,
2013-09-19 03:52:00,65.0,63.0,-100.00,South,176,6.0,9.0,94,0.04,,,0.17,0.000000,,2013-09-19 07:52:00,
2013-09-19 04:02:00,65.0,63.0,-100.00,South,176,6.0,9.0,94,0.04,,,0.17,0.000000,,2013-09-19 08:02:00,
2013-09-19 04:22:00,64.0,63.0,-100.00,SSE,151,7.0,13.0,98,0.12,,,0.29,0.000000,,2013-09-19 08:22:00,
2013-09-19 04:33:00,64.0,63.0,-100.00,SSE,151,7.0,13.0,98,0.12,,,0.29,0.000000,,2013-09-19 08:33:00,
2013-09-19 04:42:00,64.0,63.0,-100.00,SSE,151,7.0,13.0,98,0.12,,,0.29,0.000000,,2013-09-19 08:42:00,
2013-09-19 04:52:00,64.0,63.0,-100.00,SSE,151,7.0,13.0,98,0.12,,,0.29,0.000000,,2013-09-19 08:52:00,
2013-09-19 05:02:00,64.0,63.0,-100.00,SSE,151,7.0,13.0,98,0.12,,,0.29,0.000000,,2013-09-19 09:02:00,
2013-09-19 05:03:00,65.0,64.0,-100.00,SSE,158,9.0,16.0,96,0.05,,,0.34,0.000000,,2013-09-19 09:03:00,
2013-09-19 05:22:00,65.0,64.0,-100.00,SSE,158,9.0,16.0,96,0.05,,,0.34,0.000000,,2013-09-19 09:22:00,
2013-09-19 05:33:00,65.0,64.0,-100.00,SSE,158,9.0,16.0,96,0.05,,,0.34,0.000000,,2013-09-19 09:33:00,
2013-09-19 05:43:00,65.0,64.0,-100.00,SSE,158,9.0,16.0,96,0.05,,,0.34,0.000000,,2013-09-19 09:43:00,
2013-09-19 05:53:00,65.0,64.0,-100.00,SSE,158,9.0,16.0,96,0.05,,,0.34,0.000000,,2013-09-19 09:53:00,
2013-09-19 06:03:00,65.0,64.0,-100.00,SSE,156,11.0,17.0,97,0.18,,,0.52,0.000000,,2013-09-19 10:03:00,
2013-09-19 06:43:00,65.0,64.0,-100.00,SSE,156,11.0,17.0,97,0.18,,,0.52,0.000000,,2013-09-19 10:43:00,
2013-09-19 06:52:00,65.0,64.0,-100.00,SSE,156,11.0,17.0,97,0.18,,,0.52,0.000000,,2013-09-19 10:52:00,
2013-09-19 07:22:00,65.0,64.0,-100.00,SSE,159,11.0,16.0,97,0.00,,,0.51,0.000000,,2013-09-19 11:22:00,
2013-09-19 07:33:00,65.0,64.0,-100.00,SSE,159,11.0,16.0,97,0.00,,,0.51,0.000000,,2013-09-19 11:33:00,
2013-09-19 07:42:00,65.0,64.0,-100.00,SSE,159,11.0,16.0,97,0.00,,,0.51,0.000000,,2013-09-19 11:42:00,
2013-09-19 07:53:00,65.0,64.0,-100.00,SSE,159,11.0,16.0,97,0.00,,,0.51,0.000000,,2013-09-19 11:53:00,
2013-09-19 08:01:00,65.0,64.0,-100.00,SSE,159,11.0,16.0,97,0.00,,,0.51,0.000000,,2013-09-19 12:01:00,
2013-09-19 08:43:00,65.0,64.0,-100.00,South,170,11.0,17.0,96,0.00,,,0.49,2.000000,,2013-09-19 12:43:00,
2013-09-19 08:52:00,65.0,64.0,-100.00,South,170,11.0,17.0,96,0.00,,,0.49,2.000000,,2013-09-19 12:52:00,
2013-09-19 09:02:00,65.0,64.0,-100.00,South,170,11.0,17.0,96,0.00,,,0.49,2.000000,,2013-09-19 13:02:00,
2013-09-19 09:43:00,66.0,65.0,-100.00,South,179,10.0,17.0,97,0.00,,,0.49,21.000000,,2013-09-19 13:43:00,
2013-09-19 09:52:00,66.0,65.0,-100.00,South,179,10.0,17.0,97,0.00,,,0.49,21.000000,,2013-09-19 13:52:00,
2013-09-19 10:02:00,66.0,65.0,-100.00,South,179,10.0,17.0,97,0.00,,,0.49,21.000000,,2013-09-19 14:02:00,
2013-09-19 10:22:00,66.0,65.0,-100.00,South,174,9.0,15.0,98,0.00,,,0.47,38.000000,,2013-09-19 14:22:00,
2013-09-19 10:32:00,66.0,65.0,-100.00,South,174,9.0,15.0,98,0.00,,,0.47,38.000000,,2013-09-19 14:32:00,
2013-09-19 10:42:00,66.0,65.0,-100.00,South,174,9.0,15.0,98,0.00,,,0.47,38.000000,,2013-09-19 14:42:00,
2013-09-19 10:52:00,66.0,65.0,-100.00,South,174,9.0,15.0,98,0.00,,,0.47,38.000000,,2013-09-19 14:52:00,
2013-09-19 11:01:00,66.0,65.0,-100.00,South,174,9.0,15.0,98,0.00,,,0.47,38.000000,,2013-09-19 15:01:00,
2013-09-19 11:03:00,67.0,66.0,-100.00,South,179,10.0,17.0,97,0.00,,,0.44,62.000000,,2013-09-19 15:03:00,
2013-09-19 11:22:00,67.0,66.0,-100.00,South,179,10.0,17.0,97,0.00,,,0.44,62.000000,,2013-09-19 15:22:00,
2013-09-19 11:33:00,67.0,66.0,-100.00,South,179,10.0,17.0,97,0.00,,,0.44,62.000000,,2013-09-19 15:33:00,
2013-09-19 11:43:00,67.0,66.0,-100.00,South,179,10.0,17.0,97,0.00,,,0.44,62.000000,,2013-09-19 15:43:00,
2013-09-19 11:54:00,67.0,66.0,-100.00,South,179,10.0,17.0,97,0.00,,,0.44,62.000000,,2013-09-19 15:54:00,
2013-09-19 12:03:00,68.0,66.0,-100.00,SSW,192,11.0,19.0,94,0.00,,,0.41,95.000000,,2013-09-19 16:03:00,
2013-09-19 12:43:00,68.0,66.0,-100.00,SSW,192,11.0,19.0,94,0.00,,,0.41,95.000000,,2013-09-19 16:43:00,
2013-09-19 12:52:00,68.0,66.0,-100.00,SSW,192,11.0,19.0,94,0.00,,,0.41,95.000000,,2013-09-19 16:52:00,
2013-09-19 13:23:00,71.0,69.0,-100.00,SSW,202,11.0,22.0,92,0.00,,,0.40,178.000000,,2013-09-19 17:23:00,
2013-09-19 13:34:00,71.0,69.0,-100.00,SSW,202,11.0,22.0,92,0.00,,,0.40,178.000000,,2013-09-19 17:34:00,
2013-09-19 13:42:00,71.0,69.0,-100.00,SSW,202,11.0,22.0,92,0.00,,,0.40,178.000000,,2013-09-19 17:42:00,
2013-09-19 13:53:00,71.0,69.0,-100.00,SSW,202,11.0,22.0,92,0.00,,,0.40,178.000000,,2013-09-19 17:53:00,
2013-09-19 14:02:00,71.0,69.0,-100.00,SSW,202,11.0,22.0,92,0.00,,,0.40,178.000000,,2013-09-19 18:02:00,
2013-09-19 14:42:00,72.0,69.0,-100.00,SSW,204,10.0,20.0,91,0.00,,,0.40,252.000000,,2013-09-19 18:42:00,
2013-09-19 14:52:00,72.0,69.0,-100.00,SSW,204,10.0,20.0,91,0.00,,,0.40,252.000000,,2013-09-19 18:52:00,
2013-09-19 15:02:00,72.0,69.0,-100.00,SSW,204,10.0,20.0,91,0.00,,,0.40,252.000000,,2013-09-19 19:02:00,
2013-09-19 15:22:00,75.0,69.0,-100.00,SSW,205,11.0,19.0,81,0.00,,,0.39,616.000000,,2013-09-19 19:22:00,
2013-09-19 15:32:00,75.0,69.0,-100.00,SSW,205,11.0,19.0,81,0.00,,,0.39,616.000000,,2013-09-19 19:32:00,
2013-09-19 15:42:00,75.0,69.0,-100.00,SSW,205,11.0,19.0,81,0.00,,,0.39,616.000000,,2013-09-19 19:42:00,
2013-09-19 15:52:00,75.0,69.0,-100.00,SSW,205,11.0,19.0,81,0.00,,,0.39,616.000000,,2013-09-19 19:52:00,
2013-09-19 16:02:00,75.0,69.0,-100.00,SSW,205,11.0,19.0,81,0.00,,,0.39,616.000000,,2013-09-19 20:02:00,
2013-09-19 16:42:00,70.0,67.0,-100.00,SSE,164,11.0,17.0,89,0.00,,,0.39,262.000000,,2013-09-19 20:42:00,
2013-09-19 16:52:00,70.0,67.0,-100.00,SSE,164,11.0,17.0,89,0.00,,,0.39,262.000000,,2013-09-19 20:52:00,
2013-09-19 17:02:00,70.0,67.0,-100.00,SSE,164,11.0,17.0,89,0.00,,,0.39,262.000000,,2013-09-19 21:02:00,
2013-09-19 17:03:00,69.0,67.0,-100.00,SSE,160,9.0,16.0,92,0.00,,,0.39,119.000000,,2013-09-19 21:03:00,
2013-09-19 17:44:00,69.0,67.0,-100.00,SSE,160,9.0,16.0,92,0.00,,,0.39,119.000000,,2013-09-19 21:44:00,
2013-09-19 17:55:00,69.0,67.0,-100.00,SSE,160,9.0,16.0,92,0.00,,,0.39,119.000000,,2013-09-19 21:55:00,
2013-09-19 18:03:00,69.0,66.0,-100.00,South,188,10.0,17.0,90,0.00,,,0.39,98.000000,,2013-09-19 22:03:00,
2013-09-19 18:24:00,69.0,66.0,-100.00,South,188,10.0,17.0,90,0.00,,,0.39,98.000000,,2013-09-19 22:24:00,
2013-09-19 18:33:00,69.0,66.0,-100.00,South,188,10.0,17.0,90,0.00,,,0.39,98.000000,,2013-09-19 22:33:00,
2013-09-19 18:42:00,69.0,66.0,-100.00,South,188,10.0,17.0,90,0.00,,,0.39,98.000000,,2013-09-19 22:42:00,
2013-09-19 18:53:00,69.0,66.0,-100.00,South,188,10.0,17.0,90,0.00,,,0.39,98.000000,,2013-09-19 22:53:00,
2013-09-19 19:23:00,68.0,66.0,-100.00,South,176,10.0,16.0,94,0.00,,,0.39,52.000000,,2013-09-19 23:23:00,
2013-09-19 19:34:00,68.0,66.0,-100.00,South,176,10.0,16.0,94,0.00,,,0.39,52.000000,,2013-09-19 23:34:00,
2013-09-19 19:43:00,68.0,66.0,-100.00,South,176,10.0,16.0,94,0.00,,,0.39,52.000000,,2013-09-19 23:43:00,
2013-09-19 19:53:00,68.0,66.0,-100.00,South,176,10.0,16.0,94,0.00,,,0.39,52.000000,,2013-09-19 23:53:00,
2013-09-19 20:02:00,68.0,66.0,-100.00,South,176,10.0,16.0,94,0.00,,,0.39,52.000000,,2013-09-20 00:02:00,
2013-09-19 20:22:00,67.0,66.0,-100.00,South,177,9.0,14.0,96,0.00,,,0.39,9.000000,,2013-09-20 00:22:00,
2013-09-19 20:32:00,67.0,66.0,-100.00,South,177,9.0,14.0,96,0.00,,,0.39,9.000000,,2013-09-20 00:32:00,
2013-09-19 20:42:00,67.0,66.0,-100.00,South,177,9.0,14.0,96,0.00,,,0.39,9.000000,,2013-09-20 00:42:00,
2013-09-19 20:52:00,67.0,66.0,-100.00,South,177,9.0,14.0,96,0.00,,,0.39,9.000000,,2013-09-20 00:52:00,
2013-09-19 21:02:00,67.0,66.0,-100.00,South,177,9.0,14.0,96,0.00,,,0.39,9.000000,,2013-09-20 01:02:00,
2013-09-19 21:22:00,67.0,66.0,-100.00,South,183,7.0,16.0,98,0.00,,,0.39,0.000000,,2013-09-20 01:22:00,
2013-09-19 21:32:00,67.0,66.0,-100.00,South,183,7.0,16.0,98,0.00,,,0.39,0.000000,,2013-09-20 01:32:00,
2013-09-19 21:42:00,67.0,66.0,-100.00,South,183,7.0,16.0,98,0.00,,,0.39,0.000000,,2013-09-20 01:42:00,
2013-09-19 21:52:00,67.0,66.0,-100.00,South,183,7.0,16.0,98,0.00,,,0.39,0.000000,,2013-09-20 01:52:00,
2013-09-19 22:02:00,67.0,66.0,-100.00,South,183,7.0,16.0,98,0.00,,,0.39,0.000000,,2013-09-20 02:02:00,
2013-09-19 22:42:00,68.0,67.0,-100.00,South,189,9.0,21.0,95,0.00,,,0.39,0.000000,,2013-09-20 02:42:00,
2013-09-19 22:53:00,68.0,67.0,-100.00,South,189,9.0,21.0,95,0.00,,,0.39,0.000000,,2013-09-20 02:53:00,
2013-09-19 23:02:00,68.0,67.0,-100.00,South,189,9.0,21.0,95,0.00,,,0.39,0.000000,,2013-09-20 03:02:00,
2013-09-19 23:03:00,67.0,66.0,-100.00,SSW,206,7.0,14.0,95,0.00,,,0.39,0.000000,,2013-09-20 03:03:00,
2013-09-19 23:23:00,67.0,66.0,-100.00,SSW,206,7.0,14.0,95,0.00,,,0.39,0.000000,,2013-09-20 03:23:00,
2013-09-19 23:34:00,67.0,66.0,-100.00,SSW,206,7.0,14.0,95,0.00,,,0.39,0.000000,,2013-09-20 03:34:00,
2013-09-19 23:45:00,67.0,66.0,-100.00,SSW,206,7.0,14.0,95,0.00,,,0.39,0.000000,,2013-09-20 03:45:00,
2013-09-19 23:56:00,67.0,66.0,-100.00,SSW,206,7.0,14.0,95,0.00,,,0.39,0.000000,,2013-09-20 03:56:00,